Theta_e
291 291 291 291 291 292 292 293 293 293 294 294 294 294 294 295 295 295 295 295 295 295 296 297 297 298 298 298 298 298 298 299 300 302 303 303 304 305 306 306 307 307 307 307 307 307 307 305 306 311 316 316 316 315 313 313 314 313 312 311 311 310 312 315 320 323 324 325 326 327 328 328 329 329
291 291 291 291 291 291 292 292 293 293 293 294 294 294 294 294 294 294 294 295 295 295 295 296 296 296 296 296 296 296 295 296 298 300 302 302 302 303 305 306 306 307 307 307 307 306 306 305 307 313 315 314 314 314 313 313 312 311 311 310 310 310 310 313 317 321 324 325 326 326 327 327 328 329
290 291 291 291 291 291 292 292 292 292 293 293 293 293 293 294 294 294 294 294 294 295 295 295 295 295 295 295 295 294 294 294 295 298 301 302 302 301 302 303 305 306 306 307 307 306 305 305 307 311 312 310 310 311 311 311 310 310 309 309 309 309 309 312 316 320 323 325 326 326 326 326 328 329
290 291 291 291 291 292 292 292 292 292 292 292 293 293 293 293 293 293 294 294 294 295 295 295 294 294 294 294 294 294 294 294 296 298 299 299 300 300 301 302 303 304 306 306 306 306 305 305 307 310 310 309 309 309 308 308 308 308 308 308 308 308 308 311 314 319 323 325 325 325 325 326 327 328
291 291 291 291 291 292 292 292 292 292 292 292 292 292 292 292 293 293 294 294 294 294 294 294 294 293 293 293 293 293 293 294 295 296 295 295 296 298 301 302 301 302 304 306 306 306 306 305 305 308 309 309 309 308 308 307 307 307 308 308 308 307 308 309 312 317 322 325 325 325 325 326 327 328
290 291 291 291 291 291 291 291 292 292 292 291 292 292 292 292 292 292 292 293 293 293 293 293 292 292 292 292 293 293 293 293 294 294 293 293 295 297 299 300 300 300 301 304 305 305 305 305 305 307 308 309 309 308 308 307 307 307 307 307 307 307 306 308 311 316 321 324 324 324 324 325 326 327
290 291 291 291 290 290 290 290 291 291 291 290 291 291 291 291 291 291 291 291 292 292 292 291 291 291 291 292 292 292 292 292 293 293 293 293 294 295 295 296 296 296 297 301 304 305 305 304 305 306 307 308 308 308 307 307 306 307 307 307 307 306 306 308 312 315 319 322 322 323 324 324 325 326
289 290 290 290 290 289 289 290 290 290 289 289 290 290 290 290 290 290 290 290 291 291 291 291 291 291 291 291 291 291 292 292 292 292 292 292 293 292 292 294 295 297 299 301 303 305 305 305 305 306 307 307 307 307 307 307 306 306 306 306 306 305 306 309 312 316 319 321 321 323 324 324 324 325
289 289 290 290 290 289 289 289 289 289 289 289 289 289 289 290 290 290 290 290 290 290 291 291 291 291 291 291 291 291 291 292 292 292 292 292 292 292 293 294 297 299 301 301 302 304 305 305 305 307 306 306 307 307 307 306 306 306 306 305 306 307 308 310 314 317 319 320 321 323 323 322 323 323
288 288 289 290 290 289 289 289 289 289 289 289 289 289 289 289 289 290 290 290 290 290 291 291 291 291 291 291 291 291 291 291 291 292 291 291 292 292 293 293 294 296 296 297 299 302 304 305 306 307 307 306 307 307 307 307 306 307 307 307 309 310 310 311 315 318 319 320 321 321 321 320 320 321
288 288 288 289 290 290 289 289 289 289 288 288 289 289 289 289 289 289 290 290 290 290 290 291 291 291 291 291 291 291 291 291 291 291 291 291 291 292 292 292 293 294 294 294 295 298 302 304 305 307 307 307 307 307 306 306 306 305 306 309 311 312 311 312 316 318 318 317 315 316 318 318 316 316
287 288 288 288 289 290 289 289 289 288 288 288 288 288 289 289 289 289 289 289 289 290 290 290 290 291 291 291 291 291 291 291 291 291 291 291 291 291 292 292 293 294 295 295 295 298 301 303 304 306 309 309 307 306 306 306 305 303 304 308 312 313 312 313 316 317 315 312 310 311 313 312 313 315
287 287 287 288 289 289 288 288 288 287 287 288 288 288 288 288 288 288 289 289 289 289 290 290 290 290 291 291 291 291 292 292 292 292 291 291 291 291 292 292 293 294 295 297 299 300 302 303 303 305 309 310 306 306 306 306 305 302 302 308 312 312 312 314 315 316 315 313 311 309 309 311 314 318
286 287 286 287 288 288 287 287 287 286 287 287 288 288 288 288 288 288 288 289 289 289 290 290 290 290 291 291 291 291 292 292 292 292 292 292 291 291 291 292 293 293 294 297 299 299 300 302 303 304 308 309 306 305 306 305 303 301 302 307 311 313 313 312 311 312 312 311 309 308 312 316 316 317
286 286 286 287 287 286 286 286 286 286 286 287 287 287 287 287 287 287 287 288 288 289 289 290 290 291 291 291 292 292 292 292 292 292 292 292 292 292 292 292 293 293 294 296 298 298 298 300 302 304 308 308 306 306 306 304 302 302 304 306 309 312 312 309 307 308 307 307 309 312 315 318 316 314
285 286 286 286 286 285 285 286 286 285 286 286 286 286 286 286 285 286 287 287 288 289 289 290 290 291 291 292 292 292 292 292 292 292 292 292 292 292 292 293 293 293 293 295 296 296 296 297 300 303 306 308 306 305 304 302 302 304 305 307 309 311 311 309 309 309 307 307 312 316 316 316 314 313
284 285 286 286 286 285 285 285 285 285 286 286 286 285 285 284 284 285 286 287 287 288 289 289 290 290 291 291 292 292 292 292 293 293 292 292 292 292 293 293 293 293 293 293 294 295 295 295 298 301 305 307 305 302 301 301 303 305 306 307 309 309 310 311 311 310 309 309 312 315 314 313 312 312
284 285 285 286 286 284 284 285 285 285 285 285 285 284 284 284 284 284 285 286 287 287 288 289 290 290 290 290 291 291 292 292 293 293 293 293 293 293 293 293 293 293 293 293 294 295 295 296 298 301 304 305 303 301 301 302 304 306 307 308 309 309 309 311 311 310 309 310 311 312 312 311 311 312
283 284 285 286 285 284 284 285 285 285 285 285 284 283 283 283 284 284 284 285 286 287 288 288 289 289 290 289 290 291 291 292 293 293 293 293 293 293 293 292 293 293 293 293 294 295 296 296 299 302 304 303 302 301 302 303 305 307 307 307 308 308 309 310 310 309 308 309 311 312 311 311 310 310
283 284 285 286 285 284 284 284 284 284 285 284 283 283 282 283 283 284 285 285 285 286 287 288 288 289 289 289 289 290 291 291 292 293 293 293 293 293 293 293 293 293 293 293 294 295 296 297 299 303 303 302 302 303 303 304 305 306 306 306 306 307 308 309 309 309 308 308 309 310 311 311 310 310
283 283 284 285 285 284 284 284 283 284 284 283 283 282 282 282 283 283 284 285 285 286 286 287 288 288 288 289 289 289 290 290 291 292 293 293 293 293 293 293 293 293 293 293 294 296 297 299 301 302 302 302 302 303 304 304 304 304 305 305 306 307 308 308 308 308 308 307 307 308 309 310 310 310
283 282 283 284 284 284 283 283 282 283 283 283 282 282 282 282 282 282 283 284 284 285 285 287 288 288 288 288 289 289 289 290 290 291 291 293 293 293 293 293 293 293 293 294 295 297 298 299 301 301 302 302 301 302 303 303 303 304 305 305 306 308 308 308 307 307 307 307 307 307 307 308 309 309
282 281 281 282 283 282 282 282 281 282 283 283 282 282 282 282 282 282 282 283 284 284 285 286 287 287 287 288 288 289 289 289 290 290 291 292 293 293 293 293 293 293 294 295 298 298 298 298 300 301 302 303 301 300 301 302 302 304 305 306 307 307 307 307 306 306 306 306 306 306 306 307 307 308
282 281 280 281 281 281 281 281 281 281 281 282 282 281 281 282 282 282 282 283 283 283 284 286 287 287 287 287 287 288 288 289 290 290 290 292 294 294 293 293 294 294 294 295 297 299 298 298 299 300 302 303 302 300 300 301 302 303 305 306 306 306 306 306 306 306 305 305 305 305 305 306 306 307
281 281 280 280 280 280 280 280 280 280 280 281 281 281 281 281 281 281 282 282 282 283 284 285 286 286 286 286 286 287 288 288 289 290 290 291 293 295 294 294 294 294 294 295 297 298 297 297 299 301 302 302 302 300 300 300 301 303 304 304 305 305 305 305 305 305 304 303 303 304 304 304 305 306
281 281 281 280 280 279 279 279 279 279 279 279 279 280 280 280 281 281 281 282 282 282 283 284 285 285 285 285 285 286 287 288 289 290 290 291 292 294 294 294 294 294 295 296 298 299 298 298 300 302 301 301 301 301 301 301 300 301 302 303 303 304 304 305 305 305 304 303 303 303 303 303 304 304
280 280 280 280 279 278 278 278 278 278 278 278 279 279 280 280 281 281 281 281 281 281 282 282 283 284 284 284 284 285 286 287 288 289 290 290 291 292 293 293 294 294 295 296 298 299 299 300 301 301 301 302 302 302 302 301 300 300 300 302 302 303 303 303 304 304 304 303 302 302 302 303 303 303
279 280 280 280 279 278 278 278 277 277 277 277 278 279 279 280 281 280 280 280 280 280 281 281 282 282 283 283 283 284 285 287 288 289 289 290 290 291 292 292 293 293 293 294 296 297 298 299 301 301 302 302 302 302 302 302 301 301 300 300 301 302 302 302 302 303 303 303 302 302 302 302 302 302
279 279 279 279 278 278 278 277 277 277 277 277 277 278 279 279 279 279 279 279 279 279 280 281 281 281 282 282 283 283 285 286 287 288 289 289 290 290 291 292 292 293 293 293 294 295 296 297 299 301 301 302 302 302 302 302 301 301 301 301 300 301 301 301 301 301 302 303 302 302 302 301 301 301
279 279 279 278 278 278 278 277 277 277 277 277 277 278 278 278 278 278 278 278 278 279 279 280 280 280 281 281 282 283 284 285 286 287 288 289 289 290 291 291 292 292 293 293 293 294 295 296 297 298 299 300 301 301 301 301 301 301 301 301 300 300 300 300 300 300 301 302 302 301 301 301 301 301
279 279 279 278 278 278 278 278 277 277 277 277 277 277 276 276 276 277 277 278 278 278 278 279 279 280 280 281 281 282 283 284 285 286 287 288 289 289 290 290 291 291 292 292 293 293 294 295 295 296 297 298 299 301 301 302 302 302 301 301 301 301 300 300 299 300 300 300 300 300 300 300 300 300
279 279 278 278 278 278 278 278 277 277 277 276 276 276 276 276 276 277 277 277 277 277 277 278 278 279 279 280 280 281 282 283 284 285 286 287 288 288 289 290 290 290 291 291 292 293 293 294 295 295 296 296 298 299 300 301 302 302 302 301 301 301 300 300 300 299 299 299 299 300 300 300 300 300
279 279 278 278 278 278 277 277 277 276 276 276 275 275 275 275 275 276 276 277 277 277 277 277 278 278 278 279 279 280 281 282 283 284 285 286 287 288 289 289 289 290 290 291 291 292 292 293 294 295 296 296 297 299 299 301 302 302 302 302 301 301 301 301 300 300 299 298 298 298 299 299 299 300
279 279 278 278 278 277 277 277 277 276 275 275 275 275 274 274 274 275 275 276 276 277 277 277 277 277 277 278 278 279 280 281 282 283 284 285 286 287 288 288 289 289 290 290 291 291 291 292 293 295 296 297 298 299 299 299 300 301 302 302 301 301 301 301 301 301 300 299 299 298 297 298 298 299
279 278 278 278 278 277 277 277 276 276 275 275 274 274 274 274 274 274 274 275 276 276 276 276 276 276 277 277 278 278 279 280 281 282 283 284 285 286 287 288 288 289 289 290 290 290 291 291 292 293 294 295 296 298 298 297 297 299 301 302 302 302 301 301 301 301 300 299 299 298 297 297 298 298
279 278 278 278 278 277 277 277 276 276 275 274 274 274 273 273 273 273 274 275 275 275 275 275 276 276 276 276 277 277 278 279 280 281 283 283 284 285 286 287 288 288 289 290 290 290 291 291 291 292 293 293 293 295 295 296 296 298 299 301 302 302 302 302 301 301 300 299 298 298 298 298 298 298
279 278 278 278 278 277 277 277 276 275 275 274 274 273 273 273 273 273 274 275 275 275 275 275 275 275 275 275 276 277 277 278 279 281 282 283 284 285 286 286 287 288 289 289 289 290 290 291 291 291 292 292 292 293 293 294 296 297 298 297 298 300 302 302 300 299 300 300 299 299 299 299 298 299
279 278 278 278 278 277 277 277 276 275 275 274 274 273 273 273 273 274 274 275 275 274 274 274 274 274 275 275 275 276 276 277 278 280 281 282 283 284 285 286 287 288 288 289 289 289 290 290 291 291 291 291 292 292 292 293 294 296 297 296 296 298 300 300 299 299 299 299 299 299 299 299 299 299
279 278 278 278 278 277 277 277 276 275 275 274 274 273 273 273 273 274 274 274 274 274 273 273 273 274 274 274 274 275 276 276 278 279 280 281 282 284 285 286 287 287 288 288 289 289 289 290 290 290 290 291 291 291 291 291 292 295 297 297 296 297 299 300 300 300 300 299 299 298 298 298 298 299
279 278 278 278 278 277 277 277 276 276 275 274 274 273 273 273 273 273 273 273 273 273 273 272 273 273 273 274 274 274 275 276 277 278 280 281 282 283 284 285 286 287 288 288 288 289 289 289 289 290 290 291 291 291 291 291 292 294 296 297 297 298 299 300 301 302 301 299 299 298 297 297 298 298
279 279 278 278 278 277 277 277 276 276 275 275 274 274 273 273 273 273 273 273 272 272 272 272 272 273 273 273 274 274 274 276 277 278 279 280 282 283 284 285 286 287 287 288 288 288 288 289 289 290 291 291 291 291 292 292 292 293 295 297 298 299 300 300 301 302 302 300 299 297 297 297 298 298
279 278 278 278 278 277 277 277 276 276 275 275 275 274 274 273 273 273 273 273 273 272 272 272 273 273 273 273 274 274 274 275 276 278 279 280 281 283 284 285 286 286 287 287 287 288 288 288 289 290 291 291 291 291 292 292 292 292 293 296 297 300 301 301 301 301 302 301 300 298 297 297 297 297
279 278 278 278 277 277 277 277 276 276 275 275 275 274 274 273 274 273 273 273 273 272 272 272 273 273 273 274 274 275 275 275 276 277 279 280 281 282 283 285 286 286 286 287 287 287 288 288 289 290 290 291 291 291 291 292 291 291 292 294 296 298 300 300 300 300 300 300 300 300 299 298 298 298
279 279 278 278 277 277 277 277 276 276 276 275 275 274 274 273 274 273 272 272 272 272 272 273 274 274 274 274 274 275 276 276 276 277 279 280 281 282 283 285 285 286 286 286 287 287 288 288 289 289 290 291 291 291 291 291 291 291 292 293 295 297 298 299 299 299 299 298 299 299 299 299 299 299
279 279 278 278 278 277 277 277 276 276 276 276 275 275 274 274 274 273 272 271 271 272 273 274 274 274 274 274 274 275 276 277 277 278 279 280 281 282 283 284 285 285 285 286 286 287 288 288 288 289 289 290 291 291 291 291 291 292 293 294 295 296 297 297 297 297 297 297 298 298 298 298 299 300
Wind_Speed
19 18 18 18 18 17 17 17 17 17 17 17 18 18 15 13 10 8 9 7 6 11 14 16 18 19 22 27 31 31 30 28 26 26 27 28 29 29 28 30 32 32 33 31 27 22 18 18 18 17 17 16 15 15 15 15 15 14 13 12 13 14 16 16 16 17 17 18 18 18 19 21 24 28
18 18 18 18 18 18 18 18 17 17 18 18 17 17 16 15 12 10 12 10 8 11 15 17 20 22 24 25 28 31 33 31 28 26 26 27 28 30 29 29 30 30 31 33 31 25 20 19 17 16 15 14 13 13 13 12 12 12 12 12 14 15 16 17 17 17 17 17 17 17 18 19 21 25
18 19 19 20 20 19 19 19 19 18 18 18 17 16 16 16 15 15 14 12 12 16 20 22 23 24 26 27 27 30 32 32 30 27 25 24 26 30 31 30 29 28 28 31 33 28 21 19 18 15 14 13 13 13 12 11 11 10 10 12 14 16 17 17 17 17 17 15 15 16 18 19 20 22
19 19 20 20 20 20 20 20 20 18 18 18 18 17 17 16 17 18 16 13 18 25 25 26 28 26 26 27 25 26 28 28 28 28 27 26 27 28 30 30 30 28 26 27 31 30 25 20 19 17 15 15 14 13 12 11 10 9 9 11 14 17 18 18 17 17 16 14 13 15 17 18 19 20
20 19 20 20 20 20 20 20 19 18 18 19 18 18 18 18 17 18 18 15 18 26 27 26 28 28 27 27 24 25 27 27 27 31 34 34 30 27 26 28 29 30 27 25 27 30 28 22 20 20 19 16 15 14 12 11 10 10 10 12 14 17 18 18 18 17 16 14 13 13 14 16 18 19
20 19 20 20 20 21 20 19 18 18 19 20 19 18 18 18 17 16 19 19 17 24 29 28 28 28 27 27 26 26 27 27 27 30 34 34 29 25 25 27 29 31 30 27 26 28 30 27 22 21 21 18 15 14 13 12 11 11 12 14 15 18 19 19 18 17 15 14 13 13 13 14 16 19
20 19 20 20 20 21 20 19 18 18 20 20 19 19 18 18 19 18 18 20 20 23 29 28 28 28 28 28 28 27 27 27 27 28 29 30 28 27 27 29 31 32 31 30 27 26 28 28 25 22 21 19 17 16 15 14 13 12 13 16 18 19 20 19 18 17 16 14 13 12 12 13 14 17
18 17 17 17 18 20 20 18 18 18 20 21 19 19 19 18 20 20 18 19 21 23 27 29 28 28 29 30 28 27 27 27 26 28 28 27 30 33 31 29 28 28 27 28 27 26 26 26 26 26 23 21 19 18 17 16 15 14 15 18 19 19 19 19 17 16 17 15 13 12 12 12 12 14
16 16 15 14 15 19 21 19 18 19 20 21 19 19 21 20 20 21 20 21 22 23 26 29 30 29 30 31 29 26 27 27 27 28 28 27 30 32 29 26 23 23 25 25 24 25 26 25 25 27 25 21 20 18 16 15 15 15 17 19 19 19 18 16 15 15 16 14 13 13 12 12 12 13
16 16 15 13 13 18 22 21 20 21 21 20 20 21 21 21 21 22 22 22 22 22 24 26 29 30 29 30 29 27 26 27 28 30 31 29 27 26 25 26 25 24 26 28 26 25 25 24 23 26 26 22 19 17 15 14 13 13 15 17 17 16 15 14 14 15 15 14 13 13 12 12 12 13
16 16 15 14 14 17 21 21 21 21 21 21 21 22 22 22 23 23 22 22 21 21 22 22 24 27 27 27 28 28 27 26 27 28 29 28 26 25 25 26 26 25 26 29 29 26 24 23 22 25 27 23 19 18 16 14 13 12 12 13 13 12 12 12 14 15 14 12 11 11 12 12 12 12
17 17 16 15 15 17 19 20 21 21 22 23 22 22 23 23 24 23 22 22 21 20 21 21 23 25 25 25 27 28 26 24 25 26 27 28 27 27 28 27 24 24 26 27 28 26 24 22 23 24 26 24 19 18 17 15 14 12 11 9 9 10 10 12 14 13 12 11 9 10 11 11 9 8
19 19 19 17 15 17 19 20 20 20 22 23 23 24 25 25 25 23 22 22 22 22 21 21 23 23 23 24 25 26 24 23 26 27 27 29 28 27 29 29 23 20 24 25 24 23 23 20 23 25 26 25 20 19 18 16 14 12 10 9 9 10 10 11 13 12 11 11 11 11 10 8 6 5
20 20 20 18 16 17 20 20 19 21 23 22 22 23 24 25 25 24 23 22 23 23 21 21 23 23 23 24 25 26 27 27 26 25 24 26 28 26 24 25 22 18 20 23 23 23 22 18 20 27 27 25 20 19 18 16 14 11 10 9 9 10 10 10 10 10 10 11 11 10 9 9 8 5
21 21 21 18 17 19 21 20 20 22 23 23 23 22 22 24 25 24 24 24 23 23 22 22 23 22 24 28 28 27 29 28 25 24 23 22 24 22 17 16 18 19 20 22 23 26 25 19 18 26 29 26 20 19 17 14 12 10 9 9 9 10 11 10 9 9 9 10 11 12 12 11 9 7
21 21 21 19 19 22 22 20 22 24 23 23 24 23 22 24 25 24 23 24 25 25 24 24 24 23 26 30 31 29 29 28 25 23 22 22 21 19 15 15 19 21 22 23 22 27 30 24 19 23 26 25 19 16 15 12 10 10 9 9 8 9 11 11 10 9 9 10 12 14 14 11 9 8
21 21 22 21 21 25 24 22 24 25 24 24 25 24 24 26 27 26 25 24 24 26 28 27 27 28 29 31 34 34 33 30 28 24 22 23 22 19 18 20 23 24 24 24 22 26 32 28 21 21 20 21 17 13 12 11 9 9 10 10 9 8 9 11 11 9 10 12 12 12 11 9 9 9
22 21 22 21 23 26 26 24 25 26 25 25 25 26 27 29 30 29 27 26 25 25 27 28 30 31 32 32 35 36 35 32 28 26 24 22 21 21 22 25 27 26 26 25 20 19 27 26 20 19 18 16 14 12 11 10 9 9 10 11 10 9 9 10 10 10 11 12 12 11 10 9 9 9
22 22 22 22 23 26 26 24 26 27 26 24 24 25 29 32 33 31 27 26 27 26 27 29 30 30 32 34 35 35 35 34 30 24 24 24 23 24 24 23 24 24 24 21 15 13 22 25 18 17 16 12 12 11 10 8 7 8 10 11 12 11 10 10 10 10 12 13 12 12 13 11 10 9
23 23 22 21 23 26 25 25 27 28 26 24 23 24 28 31 33 34 31 29 29 29 28 29 29 29 31 34 34 34 35 37 34 25 19 21 20 19 16 15 17 18 18 17 14 14 21 24 19 16 14 10 10 10 9 7 6 8 9 10 12 11 10 10 10 10 11 12 12 12 13 13 12 10
23 23 22 21 22 25 26 26 28 28 26 25 24 24 26 27 30 34 35 33 32 31 29 28 28 28 32 36 36 36 39 40 36 27 16 15 15 11 10 10 12 15 16 17 16 16 18 20 18 15 11 7 7 9 8 6 6 8 9 9 11 10 8 9 10 11 11 11 12 12 11 12 13 12
22 24 23 21 22 25 26 27 28 28 26 25 25 26 26 25 27 31 32 30 31 32 30 28 28 30 34 39 38 37 42 44 38 29 20 14 12 11 9 9 10 13 17 16 13 12 14 14 11 11 6 4 6 7 6 6 7 10 11 10 9 8 8 9 9 9 10 10 11 12 11 12 13 14
22 24 24 23 23 25 26 27 27 27 26 25 24 26 27 26 26 29 29 28 29 31 29 29 30 33 38 42 40 39 43 47 42 33 28 21 11 14 12 10 9 8 10 10 8 7 10 10 7 8 5 2 5 6 6 8 10 11 11 10 9 8 8 9 8 7 8 9 10 11 11 12 13 15
22 24 25 25 25 26 26 26 27 26 26 25 24 25 26 26 27 28 27 27 31 32 29 29 31 34 40 43 41 40 42 47 47 40 36 30 12 13 12 9 8 6 8 11 11 6 5 8 8 9 5 1 4 6 8 9 10 10 8 7 9 9 8 8 8 7 8 9 10 10 10 11 14 15
22 24 25 25 25 26 26 26 26 26 26 25 25 26 26 26 28 28 25 28 35 34 28 27 29 32 40 45 43 41 41 45 48 44 41 38 21 6 13 11 10 10 15 18 13 4 2 7 9 5 1 5 6 6 7 9 10 8 6 3 5 8 9 7 6 7 8 8 8 9 10 12 14 13
20 22 24 24 24 25 26 26 26 26 27 27 27 27 28 29 31 32 30 33 38 34 27 26 27 29 35 40 42 43 42 42 45 45 41 39 31 15 5 6 8 10 14 13 8 4 5 7 6 3 6 6 5 5 5 6 7 6 5 3 2 5 8 8 6 7 8 8 8 9 10 13 14 11
20 21 22 22 23 25 26 26 27 27 28 29 29 29 30 32 34 35 36 38 38 31 25 25 26 26 30 33 38 43 42 39 40 42 40 38 36 28 21 18 15 15 18 18 12 5 3 3 4 6 6 5 4 3 3 4 4 3 4 3 2 3 5 8 8 8 8 9 9 10 12 13 13 11
19 20 21 22 24 25 26 27 28 28 28 29 30 30 31 33 34 35 36 38 35 28 24 25 26 27 28 29 32 39 39 35 35 39 38 37 37 32 27 27 28 29 30 30 26 20 16 13 10 7 4 3 3 2 2 3 4 3 3 2 2 3 5 7 9 9 9 9 10 12 14 15 14 13
17 18 20 22 25 26 27 28 30 31 30 30 31 31 31 33 35 35 34 33 30 26 23 24 26 28 28 27 29 34 38 36 35 38 38 37 38 37 32 29 30 32 33 33 30 26 23 20 15 9 4 2 2 1 1 1 1 3 3 1 1 2 4 6 8 9 10 11 11 12 14 16 16 16
16 18 21 23 26 27 28 29 31 32 32 32 32 32 33 33 33 32 29 27 27 26 24 23 25 27 27 27 27 33 39 38 35 36 36 37 38 37 33 29 31 33 34 33 31 28 25 21 17 12 7 4 2 1 2 2 2 4 5 4 1 1 3 6 9 10 11 12 12 13 14 14 15 15
18 19 22 23 26 28 29 30 31 32 33 34 34 34 35 33 31 28 26 26 28 27 22 20 23 27 29 30 29 31 35 37 36 33 31 32 34 34 30 28 29 32 33 33 33 30 26 23 19 14 10 7 4 3 4 5 5 6 7 7 5 3 3 6 9 11 11 12 13 13 13 13 14 14
19 20 22 25 28 31 32 34 35 36 35 36 36 35 35 35 33 32 31 32 33 29 21 18 22 27 29 29 29 28 28 32 36 34 29 28 29 29 28 26 26 28 30 32 33 32 27 24 20 16 12 8 6 5 5 6 6 6 8 9 8 6 5 6 8 10 12 12 13 13 13 14 14 14
20 21 23 26 28 30 33 34 36 36 37 38 37 37 36 35 35 36 34 34 36 32 23 19 22 25 25 25 26 26 26 28 31 30 28 27 27 26 25 23 22 23 24 26 30 31 28 25 21 18 15 9 5 6 5 6 7 6 8 10 10 10 9 7 7 9 11 12 12 13 13 14 15 14
21 22 23 24 25 28 29 29 30 31 33 34 35 37 37 35 35 35 33 32 34 30 23 20 21 22 22 23 24 25 25 26 28 27 26 25 24 24 23 22 21 22 21 22 24 26 26 25 23 21 19 14 8 5 2 1 4 5 6 9 10 11 11 10 9 9 10 12 13 13 12 13 16 16
21 21 20 21 24 26 27 27 28 29 29 30 31 34 35 35 34 33 32 32 32 26 21 21 21 20 20 21 22 23 24 26 27 27 27 26 23 22 21 20 20 21 20 20 21 22 22 23 23 22 20 17 12 9 8 8 9 7 5 10 13 13 11 11 12 11 12 13 13 13 11 11 14 16
19 20 19 20 23 24 25 27 29 29 29 29 30 30 30 31 33 31 30 32 28 20 18 21 21 20 21 21 21 21 24 26 26 26 27 27 24 22 21 20 20 20 20 19 20 21 20 20 21 18 13 11 9 5 5 11 11 6 4 5 9 14 14 13 13 13 14 14 13 13 12 11 12 13
18 19 19 20 21 22 23 26 28 30 30 30 29 28 27 29 32 31 30 31 26 20 20 21 20 19 20 21 21 22 23 24 25 24 25 25 24 23 23 23 23 23 22 21 20 20 19 18 20 17 10 8 7 5 9 14 11 6 9 13 7 8 13 15 15 14 15 15 15 15 14 11 10 11
17 18 19 19 20 21 22 25 27 29 29 29 29 29 29 30 31 31 31 30 26 22 22 23 21 21 21 20 21 22 23 26 27 26 26 26 24 23 23 23 23 23 23 22 22 21 20 18 19 18 12 7 5 5 8 13 13 10 11 16 13 6 9 16 17 15 15 16 15 15 13 11 9 8
15 16 17 18 19 19 21 24 26 28 29 29 28 28 29 30 31 31 31 29 25 21 23 25 25 25 24 21 20 20 22 25 25 24 25 26 24 22 21 21 21 22 22 22 22 22 21 21 23 22 17 11 9 10 11 13 17 18 13 11 9 6 9 17 18 15 15 16 14 12 11 10 8 5
13 15 16 17 17 18 20 23 26 28 28 28 28 28 28 29 30 29 28 28 26 24 24 26 27 27 26 25 24 23 23 24 23 22 23 24 23 23 23 22 21 21 21 21 21 22 23 25 26 25 21 16 14 15 14 13 15 18 15 9 6 7 12 18 19 18 17 15 14 12 11 10 7 5
12 14 15 16 16 17 20 22 25 27 28 28 28 28 28 28 29 27 26 26 27 26 25 26 27 28 28 28 27 27 27 28 28 28 28 26 23 25 25 23 21 21 20 19 20 22 25 27 27 23 19 16 13 11 9 6 8 13 16 12 6 8 14 16 17 18 17 16 15 13 10 10 10 9
11 12 14 15 15 17 19 22 24 27 28 28 28 28 28 29 29 28 27 27 27 26 25 26 27 29 29 29 30 30 29 29 30 31 31 28 25 25 25 22 22 23 21 19 21 24 26 28 27 24 19 16 13 9 6 5 8 13 17 16 9 4 11 13 14 15 15 15 16 14 11 9 8 8
11 11 13 14 15 16 18 21 24 26 27 28 27 27 28 28 28 28 27 27 27 26 26 27 28 29 30 30 30 31 31 30 30 30 31 31 29 26 24 22 23 23 21 21 23 26 27 28 28 25 20 18 15 10 7 9 11 13 15 16 10 2 10 12 12 11 10 12 14 14 12 10 7 4
10 11 12 13 14 15 17 20 23 25 26 27 27 27 27 27 27 27 25 25 26 26 26 27 28 29 30 30 31 32 32 32 31 30 30 31 30 27 24 23 23 23 22 22 24 25 26 28 28 25 20 18 17 13 10 10 12 12 13 13 6 6 13 13 11 10 9 10 11 11 10 10 5 1
9 10 11 12 13 14 16 19 22 24 25 26 25 26 26 26 27 27 26 25 26 26 26 27 28 29 30 30 30 31 32 31 30 29 28 29 28 25 22 22 23 23 23 24 23 24 24 25 26 25 22 20 19 17 14 11 10 10 10 7 3 9 14 15 15 14 11 9 8 7 8 8 6 1
Wind_Direction
13 13 12 11 10 7 5 4 3 2 1 359 355 351 347 335 323 318 316 315 321 320 319 318 316 317 317 312 309 312 313 311 310 308 306 306 306 305 302 301 298 291 285 281 277 274 277 279 272 264 261 258 250 243 242 243 243 248 258 270 281 285 283 277 268 262 261 260 256 252 248 245 241 235
10 10 10 10 11 10 9 7 6 5 0 356 352 348 344 337 326 318 313 310 317 322 318 314 311 313 316 314 311 309 306 306 307 304 301 301 301 302 301 300 298 295 289 282 275 270 272 274 269 261 255 250 246 242 237 235 236 243 257 268 277 283 285 281 271 262 261 262 257 252 249 245 240 235
14 14 14 15 15 13 12 10 6 4 360 355 350 345 342 337 328 320 312 303 307 317 314 309 307 309 311 311 310 308 305 305 306 305 303 302 300 299 299 299 299 298 293 285 276 267 265 268 263 255 253 251 249 248 243 239 239 244 257 267 273 278 284 284 274 262 259 261 259 252 248 243 239 235
19 20 21 20 19 14 11 7 4 0 356 353 349 344 341 336 330 322 315 303 303 308 310 308 309 312 313 312 311 311 310 310 309 306 304 307 308 305 301 301 301 300 298 292 282 268 260 262 259 250 250 253 252 252 252 248 247 252 259 267 271 275 281 284 277 264 253 253 258 256 253 245 239 237
25 26 26 23 18 14 9 3 359 355 351 348 345 343 338 334 332 325 317 308 303 305 308 309 309 313 315 313 312 313 311 311 310 305 303 306 309 307 304 303 301 299 298 297 290 275 261 257 257 250 248 251 252 253 256 255 256 260 266 271 270 271 276 280 276 262 248 245 249 253 254 246 239 238
29 30 28 23 17 10 3 358 354 350 347 344 339 338 336 329 327 325 316 310 305 304 307 311 312 314 315 311 311 313 310 309 310 307 307 308 309 306 305 305 299 295 295 295 294 285 269 256 253 251 248 248 250 252 256 259 262 265 270 273 271 270 271 275 273 259 245 244 246 246 250 246 240 240
30 30 27 24 17 6 359 354 352 348 345 343 337 332 331 325 321 321 316 310 307 305 306 311 314 316 316 312 311 311 309 308 308 307 308 309 308 307 307 306 300 293 293 292 291 290 279 263 253 249 247 246 249 254 258 261 265 268 272 274 272 270 270 271 267 252 240 244 243 239 242 243 242 243
28 26 23 21 14 5 1 354 349 348 343 340 336 328 325 322 317 316 313 307 305 304 304 309 312 313 314 312 311 311 309 308 306 306 306 306 307 309 311 310 304 297 297 295 289 286 284 274 260 248 243 245 249 252 255 258 262 266 270 274 272 269 269 267 259 242 235 240 239 232 236 241 245 247
24 18 13 12 8 3 2 356 348 345 341 336 333 328 324 321 316 313 311 306 302 300 300 305 310 311 312 312 312 311 309 307 306 305 305 305 305 308 312 312 307 300 300 300 295 287 279 276 266 249 241 244 245 245 249 252 257 262 264 268 268 264 264 259 244 234 234 236 233 230 233 239 243 246
21 15 9 5 1 358 357 354 347 341 339 335 331 329 326 322 318 313 311 309 306 302 298 300 305 309 312 313 313 313 311 307 305 304 304 304 304 305 308 309 307 304 300 298 298 294 281 272 265 249 239 239 237 236 241 245 249 254 255 259 260 257 255 245 231 233 237 233 229 227 230 237 243 246
21 16 10 4 359 354 351 349 346 340 338 335 331 330 328 324 322 318 315 314 310 305 302 300 300 302 306 308 308 308 308 304 301 302 303 304 304 305 304 305 307 306 303 297 294 297 288 272 262 251 239 232 228 229 235 240 244 249 252 253 250 247 244 231 226 236 239 229 221 220 225 236 246 253
21 17 12 8 1 353 348 346 345 342 339 336 333 331 329 327 325 322 319 317 312 308 306 302 300 299 300 301 301 302 304 302 299 301 302 299 300 302 301 301 304 303 303 302 298 300 296 276 261 249 232 220 219 223 229 237 243 248 250 245 236 233 231 222 224 236 236 224 219 220 226 238 245 255
18 15 12 10 1 351 347 347 345 343 341 338 334 332 331 330 328 324 321 318 314 312 309 305 303 300 298 298 297 297 297 293 292 296 298 295 294 297 297 297 301 302 301 302 303 307 306 287 266 250 226 210 212 220 226 233 240 245 244 233 222 221 219 216 219 226 228 225 224 220 219 221 218 217
13 12 11 9 1 351 349 348 347 345 343 339 335 332 332 331 329 325 321 318 316 314 311 309 307 302 299 297 293 291 290 286 284 284 286 290 291 294 296 294 298 304 304 305 309 313 314 305 280 256 228 206 209 218 222 232 238 239 233 222 211 206 203 206 210 214 219 218 211 201 194 197 201 200
9 9 9 5 358 353 351 349 348 347 344 339 336 332 331 332 331 327 322 318 316 315 312 310 308 303 301 301 296 290 287 283 279 274 273 277 282 286 290 291 297 304 308 309 311 309 310 312 294 262 230 205 206 217 220 230 233 227 220 212 203 196 193 192 194 201 205 198 190 185 183 193 207 212
9 8 5 1 356 353 353 350 348 347 344 340 337 333 330 333 336 337 334 324 319 320 318 314 312 310 308 310 310 307 300 290 280 275 272 267 267 271 274 278 288 296 303 310 311 307 304 308 304 274 234 203 201 213 215 221 218 208 202 195 190 193 192 191 193 196 192 180 177 179 180 186 197 198
9 7 2 357 355 354 355 355 350 347 344 341 340 337 336 337 340 346 348 340 328 325 323 318 316 318 318 318 319 322 320 305 287 278 276 268 261 260 263 267 278 288 296 303 306 302 299 300 303 285 242 203 194 205 206 205 201 194 191 184 181 188 191 195 199 195 182 174 171 173 175 181 185 185
10 8 2 357 353 354 357 357 351 347 345 343 342 342 341 342 344 347 349 344 335 329 326 321 319 323 327 326 325 327 328 320 300 280 274 272 265 261 264 268 277 285 290 292 293 291 292 296 296 279 248 205 187 192 193 195 193 187 182 175 172 178 181 190 197 190 177 173 172 175 180 183 183 184
12 10 6 358 354 354 356 355 351 349 347 345 345 345 344 346 348 348 344 338 334 331 329 328 326 327 331 333 333 333 335 335 326 300 276 273 273 269 268 272 277 282 286 283 275 275 287 292 283 256 235 203 181 178 177 182 181 176 178 173 167 170 174 180 187 186 179 175 173 177 181 182 182 187
14 13 7 358 354 356 355 353 351 350 349 348 348 346 345 347 349 349 347 345 344 340 333 333 335 333 336 341 344 344 342 341 341 329 293 274 274 270 265 269 275 280 285 281 267 264 279 284 270 240 219 196 174 163 162 170 165 162 173 171 162 163 168 170 176 182 183 181 177 177 180 181 184 188
14 15 8 359 356 356 354 353 352 353 352 352 351 348 346 345 345 347 349 350 349 342 333 336 342 340 342 351 355 353 351 348 347 344 318 280 269 264 261 267 275 282 289 290 281 269 275 279 260 231 208 181 154 141 146 159 155 155 163 161 157 162 166 165 168 175 183 187 183 181 182 184 186 189
14 15 12 6 360 356 354 355 355 355 355 354 353 351 349 347 344 344 344 343 341 338 335 340 347 347 352 359 359 355 355 354 353 349 339 312 272 251 260 273 281 290 291 293 290 274 279 286 255 212 184 128 110 110 123 135 133 140 148 150 154 160 162 163 162 164 175 186 185 182 183 186 188 189
12 14 13 11 5 359 358 358 358 358 358 355 354 353 353 351 347 342 340 339 339 339 341 345 347 350 357 1 358 355 356 359 359 356 352 343 290 245 257 270 269 286 292 294 299 272 277 301 277 226 213 111 94 86 91 109 122 133 144 154 160 155 149 156 158 156 163 170 172 175 181 186 188 187
9 11 12 11 6 3 2 1 360 0 360 357 356 357 357 352 345 341 341 345 349 348 347 349 349 351 357 360 357 354 356 1 3 3 3 1 331 241 243 261 254 254 269 288 304 296 286 314 290 250 241 104 106 97 83 87 108 130 144 156 163 159 148 147 153 154 156 161 167 175 182 187 189 187
7 8 8 6 4 4 4 2 2 3 3 3 2 360 357 353 352 352 349 351 357 356 351 350 349 350 357 360 357 354 355 359 3 6 10 11 7 270 239 249 251 261 273 280 291 300 316 313 294 261 119 78 94 106 93 80 90 117 133 138 157 162 158 155 159 160 159 163 171 178 183 186 188 189
6 7 6 2 2 6 7 6 8 10 9 9 8 4 1 3 7 7 3 0 2 0 353 350 349 349 354 355 353 353 354 356 2 7 10 13 17 20 336 280 265 279 295 299 291 265 266 290 312 22 63 72 84 95 98 90 89 104 123 134 171 169 164 169 178 175 174 177 176 174 178 182 184 187
5 7 4 360 2 9 11 10 13 15 14 12 11 9 8 10 12 12 10 7 4 359 352 350 348 348 351 349 348 351 353 352 358 6 10 12 17 25 29 30 29 22 21 30 39 35 343 328 13 46 61 77 86 86 89 101 108 101 96 116 190 210 190 188 186 182 187 189 180 174 177 182 185 188
6 8 4 3 8 13 13 12 14 16 15 13 13 13 12 12 14 13 10 7 3 356 352 350 345 346 349 345 343 347 351 353 358 4 8 12 15 19 24 29 33 33 31 35 41 45 43 38 37 48 69 87 93 102 93 100 125 131 97 97 182 219 222 214 202 193 195 195 188 182 184 188 191 193
9 12 10 12 16 15 12 13 15 16 16 15 14 15 14 14 14 12 8 4 360 354 351 348 342 340 343 341 341 350 358 2 3 5 7 9 14 17 19 21 27 32 31 29 32 36 38 37 36 36 42 62 73 88 120 110 162 180 174 158 204 232 231 227 219 209 204 201 198 195 195 195 197 199
12 16 15 16 18 16 14 14 15 15 16 17 16 16 15 15 13 9 3 359 357 353 348 346 344 343 343 341 346 360 8 8 4 3 4 6 9 13 14 13 17 23 26 26 26 27 28 30 30 23 16 16 11 324 243 237 232 208 201 201 210 241 231 223 221 219 216 210 206 204 204 205 206 209
16 18 17 17 17 17 18 19 17 16 16 16 15 14 14 14 11 7 3 360 0 357 347 340 344 350 353 352 353 0 6 6 4 1 359 1 5 6 7 11 10 10 13 19 21 22 22 24 23 18 9 357 332 292 255 244 232 209 204 208 209 217 232 221 216 220 222 218 213 210 211 212 214 219
18 19 18 18 18 17 17 17 16 15 15 14 13 12 12 12 11 10 8 6 4 0 349 341 346 350 353 355 355 354 356 0 4 2 356 357 1 2 6 11 7 1 2 7 11 14 16 17 17 16 12 353 307 272 247 242 240 220 206 206 207 214 236 235 220 219 221 218 215 216 218 218 220 224
20 20 19 18 17 15 14 12 11 10 9 9 10 10 10 10 10 9 7 4 2 360 354 350 351 350 350 351 352 353 353 355 359 360 356 356 358 1 6 10 5 360 357 356 359 4 6 6 9 14 18 12 314 277 251 234 240 236 218 211 205 204 218 234 230 220 219 217 213 214 220 224 225 228
23 22 19 17 16 14 11 9 6 4 3 3 2 4 6 8 7 6 4 1 1 359 357 356 353 350 350 350 350 352 352 351 353 356 355 355 356 359 2 3 0 360 357 352 353 356 356 357 360 6 16 29 39 42 58 246 279 275 237 221 215 206 207 218 225 224 223 222 216 211 215 226 230 231
27 24 19 16 15 14 11 7 3 1 0 359 357 359 2 4 5 3 0 359 359 356 356 359 356 351 352 352 350 350 350 348 349 353 355 356 357 358 358 356 355 355 353 352 352 352 354 357 358 1 7 14 25 46 57 33 5 339 270 229 221 216 210 210 217 220 218 218 216 208 207 223 232 232
30 25 20 16 14 12 9 6 3 1 360 358 358 357 357 358 0 0 359 360 360 354 353 357 355 351 352 351 348 348 348 347 347 349 351 352 351 352 353 353 353 353 352 352 351 351 355 0 2 3 4 2 3 8 4 9 19 22 341 284 227 214 211 208 209 212 212 211 211 207 207 220 231 230
28 24 20 17 13 11 7 5 3 2 1 359 358 357 355 355 357 359 1 4 4 1 1 1 355 350 350 349 347 348 348 348 347 347 347 348 348 349 350 349 349 351 351 350 351 353 357 1 4 4 0 352 353 334 323 341 3 36 15 358 331 228 210 203 196 197 206 212 213 214 215 219 231 237
24 20 17 15 12 9 7 4 2 2 2 0 359 358 357 357 359 1 4 6 6 6 7 5 358 354 353 350 348 348 347 349 349 347 347 348 346 346 346 343 342 345 347 347 349 353 355 358 0 0 356 346 340 325 321 329 328 329 350 354 341 299 214 199 191 187 199 212 216 220 222 222 232 248
21 17 14 12 10 8 6 4 2 2 2 1 359 358 357 358 0 2 4 6 7 6 6 5 2 359 356 353 350 347 344 347 347 343 343 344 342 341 342 341 340 343 344 344 347 351 353 355 353 349 344 332 317 310 305 301 300 310 335 353 337 297 214 198 194 190 199 211 212 211 214 219 229 239
16 15 12 9 9 9 6 3 2 2 2 1 0 359 359 359 0 1 2 7 10 9 6 5 3 0 357 355 354 351 347 346 344 341 342 342 339 339 340 340 343 346 345 344 346 347 347 347 346 343 338 331 321 313 303 290 291 307 329 350 325 257 216 203 200 197 199 206 203 194 191 193 194 185
8 10 9 8 8 7 5 3 2 2 3 2 1 2 2 2 2 2 5 9 12 9 6 4 2 0 359 358 356 353 351 350 350 350 348 344 339 339 340 341 346 348 346 345 344 342 341 343 347 350 349 343 337 332 322 309 308 316 328 339 320 236 213 208 211 212 209 202 191 178 169 171 174 173
2 4 5 5 6 6 4 3 2 2 3 3 2 3 4 3 3 5 10 12 12 8 5 2 2 1 0 359 358 356 353 351 351 351 349 345 340 338 340 344 348 347 345 342 338 338 343 349 354 359 357 351 349 348 335 323 319 317 323 334 336 218 196 201 215 224 222 208 192 180 166 157 160 173
356 359 2 3 4 5 4 3 2 2 2 2 3 4 4 3 3 5 9 10 10 8 4 1 1 1 360 359 360 358 355 352 351 350 350 349 347 342 339 342 347 346 344 340 337 340 348 355 357 358 356 353 351 346 326 317 318 315 318 329 340 131 165 185 202 211 212 207 203 202 194 176 158 176
350 352 357 360 1 3 4 3 2 2 2 2 3 4 3 3 3 5 8 8 6 5 3 1 0 360 360 360 0 0 359 356 354 351 351 352 351 345 339 341 346 348 347 344 341 343 349 355 359 359 356 352 350 344 329 319 317 318 323 329 343 127 142 155 166 169 174 183 191 201 202 190 176 93
345 346 351 354 357 1 4 3 2 2 1 1 2 3 3 2 3 5 7 8 5 3 3 2 360 359 360 0 359 359 360 358 355 353 353 353 350 344 340 344 348 350 350 349 347 344 346 352 357 359 356 355 356 352 342 331 326 331 343 354 62 127 134 138 140 138 135 137 151 172 186 192 201 288